SCP
0 0 0 0 0 0 0 0 0 0 0 0 0 0 0 0 0 0 0 0 0 0 0 0 0 0 0 0 0 0 0 0 0 0 0 0 -0 -0 -0 -0 -0 -0 -0
0 0 0 0 0 0 0 0 0 0 0 0 0 0 0 0 0 0 0 0 0 0 0 0 0 0 0 0 0 0 0 0 0 0 0 0 -0 -0 -0 -0 -0 -0 -0
0 0 0 0 0 0 0 0 0 0 0 0 0 0 0 0 0 0 0 0 0 0 0 0 0 0 0 0 0 0 0 0 0 0 0 0 0 -0 -0 -0 -0 -0 -0
0 0 0 0 0 0 0 0 0 0 0 0 0 0 0 0 0 0 0 0 0 0 0 0 0 0 0 0 0 0 0 0 0 0 0 0 0 -0 -0 -0 -0 -0 -0
0 0 0 0 0 0 0 0 0 0 0 0 0 0 0 0 0 0 0 0 0 0 0 0 0 0 0 0 0 0 0 0 0 0 0 0 0 0 0 0 0 -0 0
0 0 0 0 0 0 0 0 0 0 0 0 0 0 0 0 0 0 0 0 0 0 0 0 0 0 0 0 0 0 0 0 0 0 0 0 0 0 0 0 0 0 0
0 0 0 0 0 0 0 0 0 0 0 0 0 0 0 0 0 0 0 0 0 0 0 0 0 0 0 0 0 0 0 0 0 0 0 0 0 0 0 0 0 0 0
0 0 0 0 0 0 0 0 0 0 0 0 0 0 0 0 0 0 0 0 0 0 0 0 0 0 0 0 0 0 0 0 0 0 0 0 0 0 0 0 0 0 0
0 0 0 0 0 0 0 0 0 0 0 0 0 0 0 0 0 0 0 0 0 0 0 0 0 0 0 0 0 0 0 0 0 0 0 0 0 0 0 0 0 0 0
0 0 0 0 0 0 0 0 0 0 0 0 0 0 0 0 0 0 0 0 0 0 0 0 0 0 0 0 0 0 0 0 0 0 0 0 0 0 0 0 0 0 0
0 0 0 0 0 0 0 0 0 0 0 0 0 0 0 0 0 0 0 0 0 0 0 0 0 0 0 0 0 0 0 0 0 0 0 0 0 0 0 0 0 0 0
0 0 0 0 0 0 0 0 0 0 0 0 0 0 0 0 0 0 0 0 0 0 0 0 0 0 0 0 0 0 0 0 0 0 0 0 0 0 0 0 0 0 0
0 0 0 0 0 0 0 0 0 0 0 0 0 0 0 0 0 0 0 0 0 0 0 0 0 0 0 0 0 0 0 0 0 0 0 0 0 0 0 0 0 0 0
0 0 0 0 0 0 0 0 0 0 0 0 0 0 0 0 0 0 0 0 0 0 0 0 0 0 0 0 0 0 0 0 0 0 0 0 0 0 0 0 0 0 0
0 0 0 0 0 0 0 0 0 0 0 0 0 0 0 0 0 0 0 0 0 0 0 0 0 0 0 0 0 0 0 0 0 0 0 0 0 0 0 0 0 0 0
0 0 0 0 0 0 0 0 0 0 0 0 0 0 0 0 0 0 0 0 0 0 0 0 0 0 0 0 0 0 0 0 0 0 0 0 0 0 0 0 0 0 0
0 0 0 0 0 0 0 0 0 0 0 0 0 0 0 0 0 0 0 0 0 0 0 0 0 0 0 0 0 0 0 0 0 0 0 0 0 0 0 0 0 0 0
0 0 0 0 0 0 0 0 0 0 0 0 0 0 0 0 0 0 0 0 0 0 0 0 0 0 0 0 0 0 0 0 0 0 0 0 0 0 0 0 0 0 0
0 0 0 0 0 0 0 0 0 0 0 0 0 0 0 0 0 0 0 0 0 0 0 0 0 0 0 0 0 0 0 0 0 0 0 0 0 0 0 0 0 0 0
0 0 0 0 0 0 0 0 0 0 0 0 0 0 0 0 0 0 0 0 0 0 0 0 0 0 0 0 0 0 0 0 0 0 0 0 0 0 0 0 0 0 0
0 0 0 0 0 0 0 0 0 0 0 0 0 0 0 0 0 0 0 0 0 0 0 0 0 0 0 0 0 0 0 0 0 0 0 0 0 0 0 0 0 0 0
0 0 0 0 0 0 0 0 0 0 0 0 0 0 0 0 0 0 0 0 0 0 0 0 0 0 0 0 0 0 0 0 0 0 0 0 0 0 0 0 0 0 0
0 0 0 0 0 0 0 0 0 0 0 0 0 0 0 0 0 0 0 0 0 0 0 0 0 0 0 0 0 0 0 0 0 0 0 0 0 0 0 0 0 0 0
0 0 0 0 0 0 0 0 0 0 0 0 0 0 0 0 0 0 0 0 0 0 0 0 0 0 0 0 0 0 0 0 -0 0 0 0 0 0 0 0 0 0 0
0 0 0 0 0 0 0 0 0 0 0 0 0 0 0 0 0 0 0 0 0 0 0 0 0 0 0 0 0 0 0 0 -0 0 0 0 0 0 0 0 0 0 0
0 0 0 0 0 0 0 0 0 0 0 0 0 0 0 0 0 0 0 0 0 0 0 0 0 0 0 0 0 0 0 -0 -0 -0 0 0 0 0 0 0 0 0 0
Wind_Speed_500mb
50 45 42 38 36 32 28 25 20 14 6 1 6 14 21 24 25 25 27 31 34 37 39 42 43 47 49 51 53 54 54 53 63 94 88 94 94 91 91 89 91 86 85
52 48 45 43 41 36 31 25 19 13 8 5 8 16 21 23 25 25 28 32 38 42 45 47 49 51 52 54 56 59 63 64 65 85 97 99 98 94 89 87 84 82 79
56 52 50 49 45 39 33 26 21 16 12 11 13 17 22 22 24 26 30 35 40 46 49 51 52 53 54 55 58 63 66 69 71 80 101 96 97 91 89 86 81 78 74
60 57 56 53 45 40 35 30 26 21 18 17 18 23 23 23 26 29 32 37 44 47 49 52 52 52 53 56 60 64 70 75 77 82 92 96 92 89 80 75 77 76 79
63 61 58 52 48 45 41 36 31 26 24 23 24 28 30 30 31 34 37 42 47 51 52 52 53 53 54 57 62 66 69 73 75 80 83 85 90 84 78 82 82 84 82
66 61 59 55 54 51 44 40 35 32 29 29 30 32 35 37 39 39 42 45 50 55 56 54 53 53 54 58 63 67 63 57 66 70 79 80 88 85 84 82 87 91 92
65 61 60 59 58 54 49 45 41 37 35 35 35 38 39 40 42 45 48 51 55 57 56 55 54 54 55 62 69 69 66 64 55 64 76 81 92 90 86 91 89 92 93
66 61 59 60 58 57 54 49 46 44 41 39 39 41 42 42 45 49 51 55 58 57 56 55 55 56 58 66 68 69 70 72 68 64 72 79 78 82 87 90 89 92 88
64 60 58 59 60 60 57 53 51 49 46 42 42 42 42 44 47 50 54 58 59 58 57 55 56 58 61 61 54 66 74 80 80 72 67 67 68 71 69 71 74 81 82
57 53 56 57 58 58 55 55 55 53 50 49 46 43 45 48 49 51 55 60 60 58 57 56 57 59 59 46 48 59 76 82 74 77 81 76 72 67 57 48 54 64 70
43 47 50 51 52 52 53 57 57 57 57 56 51 48 51 53 53 53 54 58 58 58 58 60 59 59 55 43 43 60 68 61 72 73 72 70 67 62 55 50 46 56 67
41 42 42 44 46 49 52 55 58 60 60 58 55 55 55 54 55 54 54 56 56 57 58 58 58 54 42 45 53 65 53 53 61 62 63 63 63 64 63 61 58 56 53
40 42 44 44 45 47 52 55 59 60 61 60 60 59 57 55 55 54 56 55 53 53 54 56 47 55 61 64 66 55 53 53 55 56 58 60 61 62 62 58 54 53 53
45 50 50 48 48 50 52 54 58 62 64 63 60 58 55 56 58 56 55 53 51 51 52 57 57 59 65 68 66 51 46 46 49 50 54 57 60 63 66 60 58 57 59
50 57 59 56 56 56 56 58 60 61 60 59 58 57 57 59 57 58 59 56 52 52 53 61 67 74 76 72 58 48 44 42 45 46 50 55 58 62 63 59 55 55 58
55 61 66 65 63 63 62 61 63 64 61 61 61 62 59 62 63 57 47 43 45 45 57 71 75 75 73 68 57 50 46 44 45 47 49 51 56 60 64 61 56 55 61
62 63 64 64 65 64 63 62 61 60 60 60 59 59 60 61 59 50 44 45 46 48 67 72 73 70 69 59 55 51 50 47 47 48 49 48 51 54 59 62 60 57 63
60 65 64 61 61 60 59 58 57 56 56 56 57 58 60 59 58 57 50 46 57 56 73 74 69 65 63 57 52 50 50 49 48 46 45 44 45 50 56 58 58 58 61
52 56 58 55 55 53 51 51 52 54 57 60 61 59 57 58 60 58 54 55 65 69 68 69 60 61 58 53 50 49 50 50 46 44 42 40 40 47 51 53 55 57 59
47 47 48 47 45 45 46 49 52 55 58 58 59 58 58 60 62 61 60 62 65 66 65 64 58 58 54 50 48 49 48 45 41 38 38 36 37 42 46 50 51 59 58
38 38 39 39 41 43 46 48 50 52 54 56 57 56 56 60 68 68 66 60 61 59 52 50 53 52 48 47 47 47 45 42 36 35 35 32 34 40 39 43 48 52 54
32 33 34 36 39 42 43 45 47 49 52 56 57 56 53 55 55 58 60 60 58 57 49 51 52 48 47 48 46 46 43 40 33 33 32 28 30 33 35 38 45 48 50
30 32 33 34 36 38 40 42 46 49 50 50 49 48 45 45 45 46 47 48 51 51 49 53 51 50 47 44 44 44 42 37 31 31 31 27 26 28 29 33 39 43 47
23 26 28 31 35 38 40 41 42 41 41 41 40 40 41 43 45 46 45 44 44 45 47 48 49 47 43 41 42 40 39 36 32 29 30 29 24 22 23 26 31 35 41
23 26 28 31 34 35 36 35 34 34 37 40 42 42 43 43 44 44 43 43 44 46 44 43 42 40 41 41 41 38 37 37 34 31 30 31 28 24 18 22 26 31 35
24 26 27 28 27 27 28 31 33 35 38 39 41 42 43 43 43 44 43 44 43 41 40 40 40 41 42 41 37 37 37 35 35 33 34 34 33 27 22 21 23 30 35
Wind_Direction_500mb
188 188 192 197 199 203 205 198 193 189 184 112 345 338 339 338 337 338 337 337 337 335 331 329 328 328 326 326 323 321 320 315 307 316 316 317 315 315 313 311 311 310 307
195 196 199 205 207 208 205 198 195 197 212 262 308 323 328 330 334 332 334 335 336 331 328 327 327 323 323 322 321 321 320 317 312 312 316 316 315 317 317 317 314 312 309
200 203 208 211 210 208 206 203 205 215 231 258 291 309 317 318 319 326 327 331 332 326 322 320 319 318 319 319 320 319 317 315 313 311 312 315 315 320 322 322 323 318 314
206 209 215 216 212 214 211 209 214 224 239 263 285 296 296 302 307 313 318 324 328 325 319 315 313 313 315 317 317 318 317 315 314 313 312 315 317 321 325 325 322 323 322
212 215 220 218 217 218 216 217 221 231 244 263 281 285 288 293 299 304 312 320 320 317 314 311 310 310 312 314 317 317 315 314 314 314 311 314 316 320 319 321 315 317 318
216 221 224 222 222 223 224 225 229 238 251 266 278 285 287 289 292 299 305 310 314 314 311 309 308 309 311 313 313 313 313 311 308 308 313 307 308 313 315 312 312 309 305
221 225 228 227 226 229 228 231 236 246 256 267 277 285 286 287 292 297 301 306 310 311 308 307 308 309 311 313 315 317 316 317 305 303 301 307 310 313 315 311 307 305 300
226 229 230 230 231 231 231 235 243 252 260 268 277 283 286 289 291 293 298 304 307 307 306 306 307 309 312 315 318 319 316 312 312 309 302 299 301 304 302 300 299 297 296
230 234 235 234 233 232 234 240 248 254 261 269 274 280 286 288 288 292 297 301 305 304 303 303 304 308 312 316 313 307 306 306 310 308 303 301 300 297 294 294 293 299 299
234 237 236 235 234 234 238 245 252 257 261 263 269 277 283 286 287 290 296 300 300 300 299 299 301 306 311 308 305 302 303 311 317 314 311 312 310 309 307 296 296 297 301
235 236 233 230 232 236 242 248 255 258 260 262 267 275 282 284 287 290 293 295 295 295 296 298 301 306 308 302 299 300 305 313 302 310 313 317 320 320 315 306 293 285 289
231 229 222 221 226 233 243 252 256 257 258 261 267 273 279 282 286 290 292 291 291 292 295 297 301 306 302 292 301 308 307 304 311 314 319 325 330 332 325 315 308 303 299
227 220 217 220 232 242 248 253 254 256 259 262 265 272 280 283 287 290 292 292 291 291 293 297 303 289 293 298 305 308 307 310 314 318 322 328 331 329 327 323 316 315 313
227 223 221 231 240 245 252 258 260 261 260 261 265 274 280 283 286 290 290 288 289 289 293 298 298 297 302 303 306 305 307 312 316 319 322 326 328 331 334 334 328 327 325
233 229 232 240 247 253 258 261 263 262 259 261 267 272 276 282 286 286 288 287 292 296 310 298 290 294 298 302 303 304 308 311 314 317 321 325 328 333 334 335 334 333 331
240 240 243 249 254 258 259 259 260 260 258 262 268 274 279 282 284 286 281 274 275 275 280 278 285 291 295 301 300 303 306 310 312 315 317 322 327 331 333 336 337 335 328
247 248 250 254 257 258 258 258 258 258 261 267 274 281 284 285 284 279 275 274 272 275 270 276 285 291 295 294 295 298 303 307 309 311 313 318 324 328 334 336 336 337 331
254 254 255 256 257 256 256 257 259 263 267 272 277 278 278 279 279 278 277 278 274 267 274 280 285 286 287 287 289 294 298 302 306 308 311 316 324 330 333 336 336 336 336
259 257 256 253 252 253 256 259 263 268 273 276 277 278 282 283 283 283 281 275 278 280 280 280 281 279 281 282 286 291 295 300 303 305 309 315 325 330 332 336 336 341 336
255 251 251 251 252 255 260 265 271 275 279 282 284 287 289 289 287 286 284 282 279 279 278 277 275 273 277 280 284 288 292 295 300 301 305 313 323 329 333 335 343 342 339
248 247 248 251 257 263 268 273 277 281 284 287 290 293 295 294 294 294 294 290 286 283 280 274 272 273 275 280 284 286 289 293 297 299 303 310 323 330 332 336 347 343 343
253 257 263 270 275 279 280 282 284 286 288 291 293 293 294 291 292 292 291 290 288 285 283 276 276 276 277 280 282 283 286 289 293 293 297 305 320 329 332 340 347 345 348
270 274 277 276 275 279 283 287 289 290 292 294 296 298 300 300 299 297 295 290 284 282 278 275 277 276 276 277 278 280 282 285 287 290 295 297 313 327 333 344 345 347 352
273 277 281 285 287 288 290 291 293 296 299 302 303 304 304 304 303 303 302 298 292 285 279 277 276 276 276 275 274 276 279 280 280 286 288 286 297 315 325 341 342 349 353
282 285 286 288 292 295 298 300 302 302 304 306 308 308 309 307 305 305 303 300 294 289 285 280 278 278 276 275 275 276 274 273 276 279 277 281 278 292 309 324 331 338 345
288 290 293 297 301 303 303 302 303 303 305 306 306 305 305 304 304 304 304 300 296 292 289 285 281 279 277 275 276 274 272 272 271 270 270 275 271 274 280 291 316 330 334
Wind_Speed_850mb
50 45 42 38 36 32 28 25 20 14 6 1 6 14 21 24 25 25 27 31 34 37 39 42 43 47 49 51 53 54 54 53 63 94 88 94 94 91 91 89 91 86 85
52 48 45 43 41 36 31 25 19 13 8 5 8 16 21 23 25 25 28 32 38 42 45 47 49 51 52 54 56 59 63 64 65 85 97 99 98 94 89 87 84 82 79
56 52 50 49 45 39 33 26 21 16 12 11 13 17 22 22 24 26 30 35 40 46 49 51 52 53 54 55 58 63 66 69 71 80 101 96 97 91 89 86 81 78 74
60 57 56 53 45 40 35 30 26 21 18 17 18 23 23 23 26 29 32 37 44 47 49 52 52 52 53 56 60 64 70 75 77 82 92 96 92 89 80 75 77 76 79
63 61 58 52 48 45 41 36 31 26 24 23 24 28 30 30 31 34 37 42 47 51 52 52 53 53 54 57 62 66 69 73 75 80 83 85 90 84 78 82 82 84 82
66 61 59 55 54 51 44 40 35 32 29 29 30 32 35 37 39 39 42 45 50 55 56 54 53 53 54 58 63 67 63 57 66 70 79 80 88 85 84 82 87 91 92
65 61 60 59 58 54 49 45 41 37 35 35 35 38 39 40 42 45 48 51 55 57 56 55 54 54 55 62 69 69 66 64 55 64 76 81 92 90 86 91 89 92 93
66 61 59 60 58 57 54 49 46 44 41 39 39 41 42 42 45 49 51 55 58 57 56 55 55 56 58 66 68 69 70 72 68 64 72 79 78 82 87 90 89 92 88
64 60 58 59 60 60 57 53 51 49 46 42 42 42 42 44 47 50 54 58 59 58 57 55 56 58 61 61 54 66 74 80 80 72 67 67 68 71 69 71 74 81 82
57 53 56 57 58 58 55 55 55 53 50 49 46 43 45 48 49 51 55 60 60 58 57 56 57 59 59 46 48 59 76 82 74 77 81 76 72 67 57 48 54 64 70
43 47 50 51 52 52 53 57 57 57 57 56 51 48 51 53 53 53 54 58 58 58 58 60 59 59 55 43 43 60 68 61 72 73 72 70 67 62 55 50 46 56 67
41 42 42 44 46 49 52 55 58 60 60 58 55 55 55 54 55 54 54 56 56 57 58 58 58 54 42 45 53 65 53 53 61 62 63 63 63 64 63 61 58 56 53
40 42 44 44 45 47 52 55 59 60 61 60 60 59 57 55 55 54 56 55 53 53 54 56 47 55 61 64 66 55 53 53 55 56 58 60 61 62 62 58 54 53 53
45 50 50 48 48 50 52 54 58 62 64 63 60 58 55 56 58 56 55 53 51 51 52 57 57 59 65 68 66 51 46 46 49 50 54 57 60 63 66 60 58 57 59
50 57 59 56 56 56 56 58 60 61 60 59 58 57 57 59 57 58 59 56 52 52 53 61 67 74 76 72 58 48 44 42 45 46 50 55 58 62 63 59 55 55 58
55 61 66 65 63 63 62 61 63 64 61 61 61 62 59 62 63 57 47 43 45 45 57 71 75 75 73 68 57 50 46 44 45 47 49 51 56 60 64 61 56 55 61
62 63 64 64 65 64 63 62 61 60 60 60 59 59 60 61 59 50 44 45 46 48 67 72 73 70 69 59 55 51 50 47 47 48 49 48 51 54 59 62 60 57 63
60 65 64 61 61 60 59 58 57 56 56 56 57 58 60 59 58 57 50 46 57 56 73 74 69 65 63 57 52 50 50 49 48 46 45 44 45 50 56 58 58 58 61
52 56 58 55 55 53 51 51 52 54 57 60 61 59 57 58 60 58 54 55 65 69 68 69 60 61 58 53 50 49 50 50 46 44 42 40 40 47 51 53 55 57 59
47 47 48 47 45 45 46 49 52 55 58 58 59 58 58 60 62 61 60 62 65 66 65 64 58 58 54 50 48 49 48 45 41 38 38 36 37 42 46 50 51 59 58
38 38 39 39 41 43 46 48 50 52 54 56 57 56 56 60 68 68 66 60 61 59 52 50 53 52 48 47 47 47 45 42 36 35 35 32 34 40 39 43 48 52 54
32 33 34 36 39 42 43 45 47 49 52 56 57 56 53 55 55 58 60 60 58 57 49 51 52 48 47 48 46 46 43 40 33 33 32 28 30 33 35 38 45 48 50
30 32 33 34 36 38 40 42 46 49 50 50 49 48 45 45 45 46 47 48 51 51 49 53 51 50 47 44 44 44 42 37 31 31 31 27 26 28 29 33 39 43 47
23 26 28 31 35 38 40 41 42 41 41 41 40 40 41 43 45 46 45 44 44 45 47 48 49 47 43 41 42 40 39 36 32 29 30 29 24 22 23 26 31 35 41
23 26 28 31 34 35 36 35 34 34 37 40 42 42 43 43 44 44 43 43 44 46 44 43 42 40 41 41 41 38 37 37 34 31 30 31 28 24 18 22 26 31 35
24 26 27 28 27 27 28 31 33 35 38 39 41 42 43 43 43 44 43 44 43 41 40 40 40 41 42 41 37 37 37 35 35 33 34 34 33 27 22 21 23 30 35
Wind_Direction_850mb
188 188 192 197 199 203 205 198 193 189 184 112 345 338 339 338 337 338 337 337 337 335 331 329 328 328 326 326 323 321 320 315 307 316 316 317 315 315 313 311 311 310 307
195 196 199 205 207 208 205 198 195 197 212 262 308 323 328 330 334 332 334 335 336 331 328 327 327 323 323 322 321 321 320 317 312 312 316 316 315 317 317 317 314 312 309
200 203 208 211 210 208 206 203 205 215 231 258 291 309 317 318 319 326 327 331 332 326 322 320 319 318 319 319 320 319 317 315 313 311 312 315 315 320 322 322 323 318 314
206 209 215 216 212 214 211 209 214 224 239 263 285 296 296 302 307 313 318 324 328 325 319 315 313 313 315 317 317 318 317 315 314 313 312 315 317 321 325 325 322 323 322
212 215 220 218 217 218 216 217 221 231 244 263 281 285 288 293 299 304 312 320 320 317 314 311 310 310 312 314 317 317 315 314 314 314 311 314 316 320 319 321 315 317 318
216 221 224 222 222 223 224 225 229 238 251 266 278 285 287 289 292 299 305 310 314 314 311 309 308 309 311 313 313 313 313 311 308 308 313 307 308 313 315 312 312 309 305
221 225 228 227 226 229 228 231 236 246 256 267 277 285 286 287 292 297 301 306 310 311 308 307 308 309 311 313 315 317 316 317 305 303 301 307 310 313 315 311 307 305 300
226 229 230 230 231 231 231 235 243 252 260 268 277 283 286 289 291 293 298 304 307 307 306 306 307 309 312 315 318 319 316 312 312 309 302 299 301 304 302 300 299 297 296
230 234 235 234 233 232 234 240 248 254 261 269 274 280 286 288 288 292 297 301 305 304 303 303 304 308 312 316 313 307 306 306 310 308 303 301 300 297 294 294 293 299 299
234 237 236 235 234 234 238 245 252 257 261 263 269 277 283 286 287 290 296 300 300 300 299 299 301 306 311 308 305 302 303 311 317 314 311 312 310 309 307 296 296 297 301
235 236 233 230 232 236 242 248 255 258 260 262 267 275 282 284 287 290 293 295 295 295 296 298 301 306 308 302 299 300 305 313 302 310 313 317 320 320 315 306 293 285 289
231 229 222 221 226 233 243 252 256 257 258 261 267 273 279 282 286 290 292 291 291 292 295 297 301 306 302 292 301 308 307 304 311 314 319 325 330 332 325 315 308 303 299
227 220 217 220 232 242 248 253 254 256 259 262 265 272 280 283 287 290 292 292 291 291 293 297 303 289 293 298 305 308 307 310 314 318 322 328 331 329 327 323 316 315 313
227 223 221 231 240 245 252 258 260 261 260 261 265 274 280 283 286 290 290 288 289 289 293 298 298 297 302 303 306 305 307 312 316 319 322 326 328 331 334 334 328 327 325
233 229 232 240 247 253 258 261 263 262 259 261 267 272 276 282 286 286 288 287 292 296 310 298 290 294 298 302 303 304 308 311 314 317 321 325 328 333 334 335 334 333 331
240 240 243 249 254 258 259 259 260 260 258 262 268 274 279 282 284 286 281 274 275 275 280 278 285 291 295 301 300 303 306 310 312 315 317 322 327 331 333 336 337 335 328
247 248 250 254 257 258 258 258 258 258 261 267 274 281 284 285 284 279 275 274 272 275 270 276 285 291 295 294 295 298 303 307 309 311 313 318 324 328 334 336 336 337 331
254 254 255 256 257 256 256 257 259 263 267 272 277 278 278 279 279 278 277 278 274 267 274 280 285 286 287 287 289 294 298 302 306 308 311 316 324 330 333 336 336 336 336
259 257 256 253 252 253 256 259 263 268 273 276 277 278 282 283 283 283 281 275 278 280 280 280 281 279 281 282 286 291 295 300 303 305 309 315 325 330 332 336 336 341 336
255 251 251 251 252 255 260 265 271 275 279 282 284 287 289 289 287 286 284 282 279 279 278 277 275 273 277 280 284 288 292 295 300 301 305 313 323 329 333 335 343 342 339
248 247 248 251 257 263 268 273 277 281 284 287 290 293 295 294 294 294 294 290 286 283 280 274 272 273 275 280 284 286 289 293 297 299 303 310 323 330 332 336 347 343 343
253 257 263 270 275 279 280 282 284 286 288 291 293 293 294 291 292 292 291 290 288 285 283 276 276 276 277 280 282 283 286 289 293 293 297 305 320 329 332 340 347 345 348
270 274 277 276 275 279 283 287 289 290 292 294 296 298 300 300 299 297 295 290 284 282 278 275 277 276 276 277 278 280 282 285 287 290 295 297 313 327 333 344 345 347 352
273 277 281 285 287 288 290 291 293 296 299 302 303 304 304 304 303 303 302 298 292 285 279 277 276 276 276 275 274 276 279 280 280 286 288 286 297 315 325 341 342 349 353
282 285 286 288 292 295 298 300 302 302 304 306 308 308 309 307 305 305 303 300 294 289 285 280 278 278 276 275 275 276 274 273 276 279 277 281 278 292 309 324 331 338 345
288 290 293 297 301 303 303 302 303 303 305 306 306 305 305 304 304 304 304 300 296 292 289 285 281 279 277 275 276 274 272 272 271 270 270 275 271 274 280 291 316 330 334